STARLINK-36737, 67740

Orbit data source: Space-Track

STARLINK-36737, 67740 is a payload satellite owned by SpaceX/Seattle (US) in SSO that was launched on Wed, 11 Feb 2026 UTC via an FALCON 9 launch vehicle from the Air Force Western Test Range (AFWTR). Payload-class satellites include a variety of spacecraft equipped with specific instruments for various scientific and technological missions. These include communications satellites like Starlink; space stations such as the ISS; scientific satellites like the Hubble; Earth observation satellites from companies like Planet Labs, Umbra, and HawkEye 360; GPS; miniature CubeSats for education and research; and military/defense satellites.

Loading next visibility...
Identifier
67740, 2026-026V
Orbit
SSO
Country
Flag of USUS
Related business
Manufacturer
SpaceX/Seattle
Mission
Operational Commercial Communications
Bus & Motor
STARLINK V2MO, Unknown motor
Mass
575 kg wet, ~530 kg dry
Launch date (UTC)
2026-02-11 (3 months ago)
Launch vehicle
FALCON 9
Launch site
Air Force Western Test Range (AFWTR)
Object type
Payload
Rocket body
Debris
Shape & HBR
Box + 2 Pan, 17.7 m
Radar Cross Section
36.964 m²

Expand to show TLE details & history
Last TLE update: 9 hours ago

TLE from 9 hours ago
0 STARLINK-36737
1 67740U 26026V   26130.12063698  .00011518  00000-0  35861-3 0  9999
2 67740  97.2845 183.9065 0001348  94.8162 265.3234 15.33439670 13548
Epoch: 2026-05-10T02:53Z
TLE epoch observation values (Epoch: 2026-05-10T02:53:43.035Z)
Latitude
-0.00007°
Longitude
-87.45108°
Altitude
468.746 km
Speed
7.632 km/s
True Right ascension
12h 15m 37s
True Declination
0° 00' 00"
Sunlit
Object was in full shadow at epoch
Visualization orbit readout
Latitude
Unknown
Longitude
Unknown
Altitude
Unknown
Speed
Unknown
Apparent Right ascension
Unknown
Apparent Declination
Unknown
Sunlit
N/A
Visualization observer readout
Local Sidereal Time
19:48:28
Azimuth
Unknown
Elevation
Unknown
Doppler factor
Unknown
Orbital elements
Apogee altitude
463.424 km
Perigee altitude
461.58 km
Semi-major axis
6,840.639 km
Eccentricity
0.00013
Inclination
97.2845°
RAAN
183.9065°
Arg. of periapsis
94.8162°
True anomaly
265.308°
Mean anomaly
265.3234°
Eccentric anomaly
265.3157°
Mean motion
3.83617 °/min
Orbital period
93.84 mins
BSTAR
0.00035861
Loading maneuver chart data...
Computing Atmospheric mass density...
Loading historical data...
Loading historical data...
Loading historical data...
Loading historical data...
Loading historical data...
Loading historical data...
Loading historical data...

Documentation

Showing up to 5 results
|